Regional Weather Roundup
Issued by NWS

Home | Current Version | Previous Version | Graphics & Text | Print | Product List | Glossary On
Versions: 1 2 3 4 5 6 7 8 9 10 11 12 13 14 15 16 17 18 19 20 21 22 23 24 25 26 27 28 29 30 31 32 33 34 35 36 37 38 39 40 41 42 43 44 45 46 47 48 49 50
000
ASUS43 KFSD 211102
RWRSD

WEATHER ROUNDUP FOR SOUTH DAKOTA
NATIONAL WEATHER SERVICE SIOUX FALLS SD
600 AM CDT THU AUG 21 2014

NOTE: "FAIR" INDICATES FEW OR NO CLOUDS BELOW 12,000 FEET WITH NO
SIGNIFICANT WEATHER AND/OR OBSTRUCTIONS TO VISIBILITY.


SDZ001>005-009-010-012>017-211200-
NORTHWEST AND NORTH CENTRAL SOUTH DAKOTA

CITY           SKY/WX    TMP DP  RH WIND       PRES   REMARKS
BUFFALO          N/A     58  54  86 VRB5      29.84R
FAITH            N/A     60  59  96 NW7       29.85R
MOBRIDGE       CLOUDY    64  64 100 NW10      29.74R
$$

SDZ012>016-024>037-041>051-057-063-072>074-211200-
SOUTHWEST AND SOUTH CENTRAL SOUTH DAKOTA

CITY           SKY/WX    TMP DP  RH WIND       PRES   REMARKS
RAPID CTY ARPT MOCLDY    64  60  87 NW13      29.90S
PIERRE         CLEAR     65  64  97 NW9       29.76R
CUSTER         CLOUDY    58  54  86 W3        30.04R
ELLSWORTH AFB  LGT RAIN  64  60  88 NW8       29.91R
PHILIP         PTCLDY    60  58  92 W9        29.84R
PINE RIDGE     MOCLDY    55  54  96 S5        29.91R
WINNER         CLOUDY    69  65  86 W15       29.78R
$$

SDZ004>011-016>023-039-040-211200-
NORTHEAST SOUTH DAKOTA

CITY           SKY/WX    TMP DP  RH WIND       PRES   REMARKS
ABERDEEN       CLOUDY    65  65 100 CALM      29.72R
WATERTOWN      PTCLDY    66  65  96 E3        29.72R
SISSETON         N/A     69  68  96 S10       29.71R
$$

SDZ017-020-022-023-036>040-048>070-211200-
SOUTHEAST SOUTH DAKOTA

CITY           SKY/WX    TMP DP  RH WIND       PRES   REMARKS
SIOUX FALLS    MOCLDY    76  71  85 SW6       29.71R
HURON          CLOUDY    69  66  90 N3        29.71R
CHAMBERLAIN    FOG       71  71 100 W8        29.73R VSB 1/4
MITCHELL       FOG       70  70 100 CALM      29.68R VSB 1/4
YANKTON        MOCLDY    79  68  69 SW17G23   29.69S
$$

ABBREVIATIONS USED IN REMARKS
   TC - TEMPERATURE IN CELSIUS
  WCI - WIND CHILL INDEX
   HX - HEAT INDEX
  VSB - VISIBILITY



USA.gov is the U.S. government's official web portal to all federal, state and local government web resources and services.